Theta_e
334 330 325 318 311 312 310 315 322 319 320 326 323 322 324 329 328 329 351 355 356 360 363 363 366 367 368 365 364 363 362 362 362 362 362 360 361 364 364 363 364 365 364 363 362 361 360 359 358
332 321 319 313 307 305 309 318 318 320 323 323 322 322 322 326 335 345 349 356 358 362 363 362 366 367 367 365 364 363 362 362 362 362 362 360 363 364 364 363 364 364 362 362 361 361 360 359 357
329 321 312 308 307 305 308 317 320 322 323 321 320 325 327 331 338 344 355 356 360 363 362 365 365 366 366 365 364 363 362 362 362 362 361 361 362 363 363 363 363 363 361 361 361 360 359 358 357
320 315 313 305 305 310 312 317 320 319 322 321 321 319 326 343 343 346 356 356 359 361 361 364 364 365 365 365 364 363 362 362 362 362 361 361 363 363 362 363 363 363 361 360 359 359 358 358 358
319 314 304 303 305 311 315 318 320 318 319 320 320 318 321 337 340 350 354 357 358 358 360 364 363 364 365 364 364 363 362 362 361 361 360 361 362 362 362 362 362 362 361 358 357 357 358 359 357
310 311 302 301 305 310 314 317 318 317 320 320 318 318 321 340 339 348 354 357 357 355 359 362 363 363 363 363 363 362 361 361 360 360 360 361 361 362 362 361 360 360 360 359 357 357 358 357 356
310 307 302 303 305 308 312 317 315 315 317 318 322 317 325 334 342 351 356 356 355 354 357 358 359 363 363 362 361 361 360 360 359 359 360 361 361 361 362 361 359 360 360 359 358 356 356 355 354
313 310 304 305 304 305 312 314 316 315 314 322 323 317 318 332 346 351 355 354 353 353 354 353 354 355 359 361 361 360 359 359 359 360 360 360 361 361 361 359 359 359 359 358 357 356 355 354 353
316 306 303 305 306 308 313 311 315 317 314 316 319 320 326 344 345 347 349 350 351 350 351 349 348 350 350 353 360 359 359 360 360 360 360 357 352 356 358 355 358 357 357 357 356 356 354 353 352
311 305 305 311 312 311 312 311 312 312 312 313 315 321 331 338 342 342 344 346 348 347 349 347 347 347 346 344 355 355 356 356 353 350 355 349 351 352 350 354 358 356 355 355 356 355 353 351 346
310 305 310 311 313 313 312 312 313 310 309 312 313 317 324 334 339 339 342 346 348 349 349 347 350 353 343 342 349 345 346 347 347 348 354 354 349 350 346 352 351 350 354 347 350 350 348 346 346
306 310 311 311 312 312 310 312 310 311 312 315 317 318 320 328 335 338 339 344 348 349 350 347 347 353 350 345 346 343 342 343 344 346 357 354 350 354 350 347 344 347 345 346 345 344 347 347 348
306 308 310 312 312 311 312 309 309 311 314 316 316 317 318 323 333 338 341 344 349 349 350 349 349 353 355 357 346 343 343 341 342 347 354 350 349 355 349 350 344 346 345 345 346 346 347 347 346
309 309 309 310 310 311 309 309 310 312 315 315 315 314 316 319 321 326 338 342 349 353 352 352 350 359 354 353 356 350 348 343 342 345 350 353 352 356 347 350 345 346 346 346 346 344 344 344 342
308 303 306 307 308 308 310 306 306 313 315 314 315 315 316 317 319 320 327 339 346 353 356 356 358 358 360 358 359 353 346 343 341 344 356 355 357 360 358 348 347 346 348 346 345 345 345 346 347
303 304 299 305 306 307 306 299 308 312 312 311 314 316 317 318 318 320 322 327 342 350 359 360 354 355 360 359 358 353 349 347 344 344 349 351 352 360 360 349 348 348 350 346 343 342 341 344 346
300 295 298 301 308 307 306 301 308 312 312 311 312 314 315 317 320 322 321 323 328 345 354 359 358 355 358 363 357 357 361 352 349 347 346 353 348 348 353 346 346 353 345 344 343 341 345 345 347
296 297 298 298 304 306 304 304 308 310 311 311 312 315 316 316 318 322 323 324 327 335 355 366 362 364 360 359 362 353 351 352 350 349 350 357 351 348 352 345 350 350 342 340 340 349 344 344 345
300 298 297 302 305 303 302 304 306 310 310 310 312 313 315 317 321 322 323 325 326 336 356 362 366 366 363 357 354 353 350 351 350 350 359 361 358 356 359 346 351 353 349 351 354 345 348 345 356
298 296 296 300 303 302 301 301 305 307 309 311 311 313 314 316 319 321 323 325 327 337 356 361 366 367 365 359 358 355 352 351 352 355 360 360 358 360 358 358 355 358 346 354 352 355 346 353 356
295 295 296 294 299 301 300 298 301 305 307 309 310 312 313 314 316 320 322 324 326 332 354 358 366 366 365 364 361 361 357 355 351 353 355 356 358 358 359 358 357 359 355 345 354 356 357 352 348
290 296 296 294 294 290 300 289 299 303 304 306 308 310 312 313 315 317 320 323 325 327 343 355 364 366 365 366 360 359 351 347 350 350 352 353 358 357 357 359 357 363 350 357 352 357 355 349 340
290 296 296 295 295 295 295 292 296 302 301 304 308 310 312 313 314 315 317 321 324 327 330 354 363 366 364 362 364 359 355 352 352 351 357 357 361 361 356 360 362 361 350 357 351 347 348 341 336
296 294 294 293 291 288 294 292 294 297 301 304 308 310 312 313 315 316 317 319 322 325 328 348 360 363 361 359 363 362 358 356 349 351 352 350 353 355 360 358 362 362 357 353 348 347 345 341 340
294 292 285 283 285 284 295 292 295 301 304 306 307 310 313 314 314 314 315 316 320 322 326 331 353 359 362 356 358 362 362 362 359 355 348 350 350 351 359 361 361 357 358 354 351 348 345 342 338
292 290 285 278 282 286 295 288 295 304 306 307 309 310 312 313 315 315 315 316 317 320 327 329 345 354 357 357 355 357 363 356 352 355 350 351 349 353 361 361 361 359 354 351 348 342 341 342 339
292 289 295 288 290 285 289 293 301 304 303 306 307 309 310 312 314 315 316 317 318 320 329 330 337 351 356 360 358 354 360 358 352 355 357 353 356 355 358 362 357 356 351 347 348 341 343 341 340
293 297 288 291 281 281 286 289 291 298 300 304 305 307 310 312 314 315 316 318 319 321 327 331 334 346 351 359 360 355 355 360 357 357 356 355 359 362 362 357 356 352 348 346 347 344 341 340 339
290 291 292 292 290 282 284 288 301 299 304 305 309 311 311 311 313 315 317 319 319 322 323 327 330 340 349 354 356 349 349 352 355 351 349 360 365 362 358 355 352 348 347 347 348 346 340 338 337
296 294 293 286 286 290 289 289 302 305 306 310 310 310 311 312 313 314 317 319 320 320 323 324 329 335 342 353 351 342 344 352 350 349 353 358 360 360 357 354 349 348 346 345 343 339 337 336 333
Wind_Speed
13 13 10 7 10 9 18 20 20 4 2 5 5 7 10 14 12 7 6 8 16 22 23 19 17 17 18 19 18 18 18 18 18 17 16 15 15 14 14 14 13 13 14 13 13 12 11 11 11
15 6 8 8 11 16 15 21 14 10 7 5 6 7 8 2 8 11 10 12 18 22 21 21 17 18 19 19 18 17 17 18 18 17 17 15 15 14 14 13 13 13 13 13 11 11 12 11 11
15 10 10 7 17 19 18 18 20 14 10 5 6 2 6 5 6 5 14 16 20 20 21 19 19 18 19 19 18 17 17 18 18 17 16 15 15 14 13 13 12 13 14 13 12 11 10 11 11
8 7 9 14 23 23 26 24 6 5 9 7 9 6 5 9 2 4 13 16 19 19 21 21 18 19 18 19 18 18 17 17 17 17 16 15 15 14 13 12 11 12 12 12 11 10 11 10 9
10 9 14 19 27 27 22 22 21 14 17 15 11 13 4 11 3 11 13 16 17 19 20 20 18 18 18 19 18 18 17 17 17 16 16 15 15 14 13 12 11 11 11 12 11 10 9 8 9
10 11 16 20 27 26 26 26 18 16 15 12 10 11 8 12 7 8 14 16 17 19 20 20 17 18 18 18 17 17 17 17 17 16 16 14 13 13 12 12 10 10 10 10 11 10 8 7 7
18 16 20 25 25 26 25 23 25 17 21 20 17 13 2 8 8 9 14 15 17 18 19 19 19 17 17 16 16 16 16 17 16 15 14 14 13 13 12 11 11 10 9 10 9 9 8 7 6
16 16 28 24 22 28 22 21 21 20 20 19 19 16 12 12 13 11 14 16 17 17 19 20 19 18 16 15 15 16 16 17 16 14 14 14 12 11 11 10 10 10 10 10 9 9 8 7 7
19 18 21 31 28 21 21 21 20 15 15 20 20 18 1 13 11 13 14 16 16 16 18 20 20 19 18 17 14 15 17 17 16 15 14 12 11 12 13 12 15 11 11 10 9 9 8 7 7
21 17 32 24 22 22 22 16 14 19 18 18 18 15 8 10 11 14 15 16 18 18 19 18 18 19 18 15 17 15 15 13 13 13 14 12 11 11 11 12 13 11 10 10 9 9 8 8 9
24 28 23 22 25 15 22 19 16 16 20 13 19 19 14 12 12 14 16 17 18 18 16 20 17 16 19 15 12 10 9 9 10 15 13 11 10 9 8 8 8 8 10 8 9 9 8 11 9
29 28 25 25 28 22 17 19 22 22 19 17 18 15 18 18 14 15 15 17 19 20 19 19 20 16 15 12 12 12 11 11 10 13 14 9 7 8 8 7 10 9 9 9 9 8 9 11 7
29 25 27 27 21 23 21 21 21 22 21 16 19 16 16 7 13 13 14 14 16 20 20 20 20 17 13 11 13 12 11 11 13 13 14 11 9 8 8 7 8 9 9 9 9 8 7 5 7
24 23 23 26 25 25 21 23 23 26 22 21 19 20 19 18 16 15 15 13 15 19 21 20 21 17 15 12 13 10 9 12 11 12 13 13 10 8 8 6 8 7 7 7 7 6 4 6 7
26 26 25 23 22 25 23 27 31 24 22 22 24 24 22 22 21 21 17 15 13 16 19 20 18 20 16 15 12 10 11 12 12 11 13 13 11 11 9 8 8 7 6 5 4 3 4 6 6
24 23 25 24 28 25 22 36 24 24 30 30 28 21 20 27 29 26 22 18 16 15 18 19 19 21 18 15 13 11 11 11 12 11 12 15 14 10 9 9 8 7 5 6 5 6 6 7 6
20 26 29 28 26 26 31 36 23 23 17 17 23 25 25 23 21 23 24 23 20 18 16 17 18 22 21 15 13 13 12 12 12 11 12 15 15 13 10 8 7 5 6 6 6 6 6 5 4
22 25 26 27 23 25 25 24 21 24 15 14 14 16 18 23 25 19 20 20 18 17 18 17 18 18 20 15 12 13 12 12 12 11 11 15 11 13 10 9 6 7 7 7 6 4 4 4 7
27 29 32 26 21 17 23 21 20 20 22 17 15 16 14 14 15 19 20 19 18 19 20 18 19 20 16 15 15 14 13 13 12 12 12 14 12 13 11 9 8 7 8 6 6 4 6 6 6
21 26 28 25 25 24 24 23 23 20 22 21 18 17 19 19 18 17 17 15 15 15 19 19 19 20 17 15 14 13 13 13 12 10 12 12 13 12 12 10 10 10 8 6 5 6 6 4 6
22 26 23 26 26 27 28 29 27 25 26 27 26 25 23 24 21 19 19 15 15 18 18 19 19 21 19 19 14 11 12 10 12 10 6 9 12 12 12 12 9 11 7 9 7 7 7 5 4
18 19 23 23 21 19 25 22 25 25 27 29 28 28 25 25 25 22 20 21 19 19 18 20 18 20 20 21 17 19 14 14 13 13 14 14 15 14 15 11 11 8 8 6 9 7 7 9 9
21 22 20 17 20 23 28 19 18 24 23 22 20 21 29 28 27 27 25 22 21 18 19 20 20 20 22 22 19 16 16 13 12 12 15 15 14 16 17 13 12 10 9 8 13 12 10 8 8
18 21 22 20 15 14 22 22 22 22 26 21 22 22 22 21 23 27 26 24 22 20 21 18 21 22 19 20 23 20 20 15 13 13 12 11 12 12 14 16 13 12 8 14 12 13 13 10 9
9 15 11 11 15 16 19 23 22 21 24 22 17 17 19 18 20 22 25 24 23 24 22 20 22 22 22 20 22 18 19 16 15 14 12 15 13 13 14 15 13 12 12 14 12 11 12 11 9
21 9 8 11 15 14 9 13 22 28 26 22 20 17 11 13 14 19 23 22 22 23 23 22 22 21 23 20 20 19 20 15 14 16 14 13 13 13 16 14 14 15 15 14 13 10 9 9 7
13 18 16 18 21 16 9 12 24 23 8 7 9 12 17 17 12 17 20 18 20 21 19 20 20 21 21 23 20 20 21 21 18 20 15 13 12 13 18 16 17 15 16 15 13 8 8 9 6
9 18 9 7 10 16 12 20 17 19 17 14 8 16 13 14 15 12 12 12 12 15 16 20 20 22 22 22 20 18 20 20 17 17 16 16 14 16 18 16 16 16 15 14 12 11 11 9 7
7 12 12 11 9 4 11 5 15 6 9 8 8 13 7 2 6 8 11 12 11 11 15 17 19 21 22 21 19 14 11 18 18 18 17 18 17 19 19 19 19 18 16 13 10 10 12 10 8
5 7 6 6 10 13 17 12 7 20 7 15 9 8 7 9 10 10 9 9 11 14 15 14 16 20 21 21 21 13 11 10 7 13 12 19 19 18 19 18 19 18 16 14 12 12 11 10 10
Wind_Direction
248 230 240 250 246 227 252 239 250 190 196 223 36 291 354 341 342 45 107 138 136 137 150 155 146 152 156 157 156 155 152 149 146 146 147 148 145 140 133 133 131 132 135 131 130 132 132 132 133
258 235 233 270 241 247 237 239 230 236 197 72 261 246 228 290 54 106 136 141 149 138 153 158 151 154 155 158 157 156 154 149 146 146 146 150 147 142 138 137 135 137 141 140 137 140 142 142 144
257 237 260 228 235 244 252 232 233 202 127 221 266 247 354 65 73 100 92 151 148 146 157 147 152 154 156 158 157 156 153 148 146 146 147 151 148 144 143 138 137 143 147 150 149 149 151 153 157
220 205 250 253 243 230 248 265 47 281 228 207 253 260 143 52 81 79 132 147 145 155 161 138 153 153 157 157 156 153 151 147 145 146 150 155 151 146 145 140 143 147 148 151 153 157 160 166 165
240 257 239 235 242 253 253 236 269 209 257 209 207 254 206 118 110 113 148 158 156 154 155 154 154 152 155 158 155 149 147 145 145 149 154 157 151 147 146 144 145 149 152 157 160 166 169 170 177
223 238 239 242 244 242 245 260 246 260 234 233 212 231 257 106 146 143 156 162 165 156 143 153 155 153 156 156 152 146 144 144 148 152 154 155 151 147 147 147 147 152 157 161 166 170 173 177 184
235 228 242 249 257 250 239 237 252 220 251 243 247 242 188 160 121 153 160 164 163 158 147 155 166 157 152 150 146 143 142 143 147 150 153 152 153 150 150 149 152 158 164 166 172 172 179 186 193
236 250 258 247 253 259 260 249 230 237 255 256 263 248 246 152 136 149 168 172 163 162 153 162 169 169 171 161 145 143 143 143 145 149 151 151 146 147 148 142 156 166 168 173 178 182 185 193 202
224 247 243 243 247 251 252 257 256 247 254 253 252 249 158 116 151 160 172 176 168 169 157 168 171 170 178 168 155 145 148 146 145 149 149 150 174 174 160 194 150 175 177 182 188 189 191 196 216
225 229 240 249 257 258 265 244 257 264 230 235 251 237 114 168 178 172 180 181 177 176 163 170 174 170 178 170 159 176 168 175 179 176 170 186 178 182 185 145 160 179 185 190 189 197 200 210 224
222 240 256 251 258 277 288 270 254 239 250 231 237 228 188 208 203 203 185 188 185 179 171 172 176 166 180 172 159 180 176 176 184 183 175 203 178 178 182 160 179 184 193 194 191 190 217 218 239
238 241 246 258 275 275 248 277 269 263 244 256 257 250 227 185 216 216 204 191 186 181 180 176 176 168 191 168 168 180 179 179 179 185 178 203 185 166 205 182 187 192 177 209 188 198 218 234 247
241 250 253 258 261 265 271 253 257 261 261 257 262 258 250 220 222 215 231 209 192 185 183 186 173 174 192 181 173 184 182 181 184 178 179 198 194 167 206 192 198 193 177 204 186 229 189 233 250
272 266 264 252 255 266 247 259 253 249 256 263 254 246 243 231 224 236 210 231 202 189 183 188 178 168 193 191 173 181 190 174 184 183 177 199 201 167 195 189 221 188 210 199 213 204 211 229 254
267 267 266 258 255 259 262 259 249 254 252 244 235 238 242 237 240 236 223 206 228 198 187 187 180 169 196 193 175 187 181 178 188 184 174 203 206 164 211 202 210 199 212 224 221 219 203 269 248
276 262 257 245 242 239 233 254 246 237 227 234 240 231 232 227 233 233 228 218 204 228 192 182 188 174 188 190 184 185 180 189 189 185 178 196 197 180 217 201 197 200 202 197 214 217 239 233 251
249 257 257 256 240 245 225 249 249 258 238 245 223 233 234 235 236 231 230 219 207 197 217 177 188 189 179 192 190 194 183 201 188 188 179 182 199 203 200 221 196 200 211 219 221 225 250 274 261
262 246 243 254 254 257 238 245 262 249 267 236 235 242 241 227 234 229 223 232 206 211 193 192 186 196 174 183 200 196 192 194 193 195 187 166 197 199 195 210 204 182 221 215 222 266 278 275 312
294 260 272 282 289 250 263 249 240 243 239 222 222 239 248 247 248 235 228 210 229 212 181 198 187 187 176 182 193 194 199 189 201 193 187 168 194 189 175 217 180 191 214 225 160 215 211 271 20
300 292 285 270 270 273 271 266 265 266 269 271 253 234 247 247 233 242 237 219 210 232 181 185 193 187 188 187 190 198 197 190 199 190 177 185 187 186 176 213 175 184 208 172 201 200 237 98 57
285 288 289 283 278 258 255 250 248 251 255 254 252 249 244 249 244 229 231 224 216 238 185 185 195 191 192 191 188 202 186 190 188 192 161 183 178 187 195 194 215 158 238 169 190 203 200 128 71
257 254 272 315 299 282 251 260 249 234 239 241 241 244 239 234 242 246 231 220 215 221 207 192 193 195 192 193 190 197 196 190 193 192 191 191 188 191 186 188 207 169 193 163 180 106 130 131 135
288 275 273 281 262 271 265 256 249 256 255 242 246 241 227 228 231 236 232 232 215 205 235 187 185 199 199 194 207 191 200 188 185 189 178 180 180 190 185 186 184 172 203 124 131 125 134 146 149
280 278 276 269 259 250 249 255 258 245 238 245 243 242 243 234 228 230 230 224 217 207 214 195 183 193 198 197 209 194 194 194 189 185 161 179 175 189 186 181 180 173 172 138 145 145 150 165 184
306 261 256 266 248 257 252 230 243 257 257 253 245 247 227 234 224 228 229 225 215 207 204 216 186 190 193 197 199 202 196 207 184 180 167 180 172 183 178 177 173 149 158 155 151 165 173 184 182
308 204 270 256 253 268 276 272 238 241 243 254 252 245 255 243 236 228 228 221 220 216 197 213 188 194 192 192 196 200 198 195 188 185 178 178 174 172 158 173 151 159 163 158 168 175 180 168 180
309 298 290 285 277 264 241 289 281 254 255 211 248 262 242 243 251 246 224 229 220 221 201 207 209 188 195 193 192 198 199 195 194 175 179 177 167 162 158 169 153 162 170 168 171 154 156 142 158
259 295 290 227 257 253 259 233 222 231 210 204 247 216 233 223 225 245 254 219 225 233 215 191 224 190 200 194 196 197 200 198 194 169 175 171 151 150 158 157 161 169 171 174 172 148 143 159 167
326 261 206 244 266 271 277 358 15 102 310 88 50 38 27 213 244 230 245 257 226 244 237 190 216 199 191 199 197 200 201 179 188 175 173 161 153 153 161 165 171 174 172 167 176 156 154 158 147
181 292 286 282 264 289 296 257 309 321 85 98 319 93 64 1 349 306 307 261 230 227 227 228 217 219 194 188 192 191 158 226 199 173 163 151 146 159 168 172 174 174 168 163 155 157 153 151 144